Terminal Aerodrome Forecast
Issued by NWS

Home | Current Version | Previous Version | Text Only | Print | Product List | Glossary On
Versions: 1 2 3 4 5 6 7 8 9 10 11 12 13 14 15 16 17 18 19 20 21 22 23 24 25 26
000
FTUS43 KPAH 141644 AAA
TAFCGI
TAF AMD
KCGI 141644Z 1417/1512 VRB04KT P6SM BKN018 OVC070
     FM141900 16003KT P6SM BKN025
     FM150100 20004KT P6SM FEW020 SCT250
     FM150700 24001KT 4SM BR SCT015=

USA.gov is the U.S. government's official web portal to all federal, state and local government web resources and services.